TimeEDT,TemperatureF,Dew PointF,Humidity,Sea Level PressureIn,VisibilityMPH,Wind Direction,Wind SpeedMPH,Gust SpeedMPH,PrecipitationIn,Events,Conditions,WindDirDegrees,DateUTC
12:55 AM,66.0,57.0,73,30.01,10.0,SSW,8.1,-,N/A,,Clear,200,2012-10-06 04:55:00
8:35 AM,68.0,59.0,73,29.95,10.0,SW,10.4,-,N/A,,Clear,220,2012-10-06 12:35:00
8:55 AM,68.5,57.6,68,29.96,10.0,SW,11.5,-,N/A,,Clear,220,2012-10-06 12:55:00
9:55 AM,71.2,55.6,58,29.96,10.0,SSW,12.7,-,N/A,,Clear,210,2012-10-06 13:55:00
10:55 AM,75.2,54.0,47,29.94,10.0,SW,13.8,-,N/A,,Clear,230,2012-10-06 14:55:00
11:55 AM,77.5,55.4,46,29.92,10.0,SW,17.3,21.9,N/A,,Clear,230,2012-10-06 15:55:00
12:55 PM,80.2,55.0,42,29.89,10.0,SSW,16.1,-,N/A,,Clear,210,2012-10-06 16:55:00
1:55 PM,81.5,51.4,35,29.86,10.0,SW,18.4,24.2,N/A,,Clear,230,2012-10-06 17:55:00
2:55 PM,82.6,49.6,32,29.86,10.0,WSW,13.8,23.0,N/A,,Clear,240,2012-10-06 18:55:00
3:55 PM,82.0,48.9,31,29.86,10.0,WSW,12.7,-,N/A,,Clear,240,2012-10-06 19:55:00
4:55 PM,79.3,53.1,40,29.86,10.0,West,6.9,-,N/A,,Mostly Cloudy,260,2012-10-06 20:55:00
5:55 PM,77.2,52.9,43,29.88,10.0,West,6.9,-,N/A,,Scattered Clouds,270,2012-10-06 21:55:00
6:55 PM,75.4,55.0,49,29.90,10.0,WNW,4.6,-,N/A,,Mostly Cloudy,290,2012-10-06 22:55:00
7:18 PM,75.2,55.4,50,29.91,10.0,NW,4.6,-,N/A,Rain,Light Rain,310,2012-10-06 23:18:00
7:26 PM,75.2,55.4,50,29.92,10.0,NW,4.6,-,N/A,,Overcast,310,2012-10-06 23:26:00
7:55 PM,72.5,57.2,59,29.94,10.0,North,12.7,-,0.00,,Overcast,360,2012-10-06 23:55:00
8:55 PM,69.8,54.0,57,29.97,10.0,North,13.8,-,N/A,,Overcast,10,2012-10-07 00:55:00
9:55 PM,67.6,44.8,44,29.99,10.0,North,15.0,-,N/A,,Clear,360,2012-10-07 01:55:00
10:55 PM,67.3,43.0,41,30.01,10.0,North,15.0,-,N/A,,Overcast,350,2012-10-07 02:55:00
11:55 PM,64.8,37.0,36,30.01,10.0,North,12.7,-,N/A,,Overcast,350,2012-10-07 03:55:00